Orbital Elements at Epoch 2456460.5 (2013-Jun-17.0) TDB
Reference: JPL 43 (heliocentric ecliptic J2000)
Element | Value | Uncertainty (1-sigma) | Units |
e | .6042511059009203 | 2.7664e-07 | |
a | 3.522494825031523 | 1.4721e-07 | au |
q | 1.394023431475956 | 9.2585e-07 | au |
i | 1.551448934286068 | 6.9725e-06 | deg |
node | 277.7449762902223 | 0.00043774 | deg |
peri | 78.0609122489256 | 0.0004189 | deg |
M | 353.8181896407453 | 1.6014e-05 | deg |
tp | 2456501.965523215175 (2013-Jul-28.46552322) | 0.00010891 | TDB |
period | 2414.759995850575 6.61 | 0.00015137 4.144e-07 | d yr |
n | .1490831389531917 | 9.3453e-09 | deg/d |
Q | 5.650966218587089 | 2.3616e-07 | au |
|
Additional Model Parameters
Parameter | Value | Uncertainty (1-sigma) |
A2 [EST] | -1.216985614809136E-11 | 1.195E-12 |
|
| | Orbit Determination Parameters
Additional Information
|